[[{"header":{"parameterUnit":"m.s-1","parameterCategory":1,"la1":30.2991,"la2":30.254,"lo1":-89.0895,"lo2":-89.0444,"dy":0.0017,"dx":0.0017,"nx":28,"ny":28,"refTime":"2024-12-08T09:00:00:Z","depth":0,"parameterNumber":2,"parameterNumberName":"U-component_of_WINDS"},"data":[0,0,0,0,0,0,0,0,0,0,0,0,0,0,0,0,0,0,0,0,0,0,0,0,0,0,0,0,0,0,0,0,0,0,0,0,0,0,0,0,0,0,0,0,0,0,0,0,0,0,0,0,0,0,0,0,0,0,-3.818,-3.818,0,-3.8195,-3.8195,-3.8195,-3.8141,-3.814,-3.8138,-3.8136,-3.815,-3.8152,-3.8154,0,0,0,0,0,0,0,0,0,0,0,0,0,-3.8102,-3.8104,-3.818,-3.818,-3.818,-3.8195,-3.8195,-3.8195,-3.8141,-3.814,-3.8138,-3.8136,-3.815,-3.8152,-3.8154,0,0,0,0,0,0,0,0,0,0,0,0,0,-3.8128,-3.8104,-3.818,-3.8155,-3.8153,-3.8195,-3.8195,-3.8195,-3.8142,-3.8139,-3.8137,-3.8135,-3.8149,-3.8152,-3.8154,-3.822,0,0,-3.8163,-3.8164,0,0,0,0,0,0,0,0,-3.8127,-3.8131,-3.8158,-3.8157,-3.8155,-3.8164,-3.8173,-3.8204,-3.8143,-3.8146,-3.8136,-3.8134,-3.8157,-3.8159,-3.8167,-3.8221,-3.8222,-3.8163,-3.8165,-3.8166,-3.8167,0,0,0,0,0,0,0,-3.8125,-3.813,-3.8186,-3.8159,-3.8157,-3.8143,-3.8144,-3.8178,-3.8165,-3.8146,-3.8142,-3.8144,-3.8155,-3.8164,-3.8167,-3.8222,-3.8163,-3.8166,-3.8168,-3.8169,-3.833,-3.8332,0,0,0,0,0,0,-3.8127,-3.8129,-3.8185,-3.8186,-3.8135,-3.8146,-3.8147,-3.8163,-3.8164,-3.8162,-3.8146,-3.8142,-3.8161,-3.8164,-3.8167,-3.8242,-3.8166,-3.8169,-3.8171,-3.8327,-3.833,-3.8333,0,0,0,0,0,0,-3.8125,-3.8132,-3.8185,-3.8157,-3.8162,-3.815,-3.8168,-3.8165,-3.8174,-3.8165,-3.8162,-3.8158,-3.8159,-3.8163,-3.8207,-3.8242,-3.817,-3.8173,-3.8324,-3.8328,-3.8332,-3.8395,0,0,0,0,0,0,-3.8123,-3.8132,-3.8157,-3.8158,-3.8164,-3.8225,-3.8171,-3.8167,-3.8179,-3.8173,-3.8175,-3.8173,-3.8157,-3.8203,-3.821,-3.8245,-3.8175,-3.8321,-3.8326,-3.833,-3.839,-3.8401,-3.841,0,0,0,0,0,-3.8121,-3.8175,-3.8159,-3.8166,-3.8195,-3.8227,-3.8231,-3.8212,-3.8182,-3.8207,-3.8201,-3.8173,-3.8238,-3.8208,-3.8216,-3.8252,-3.8318,-3.8324,-3.833,-3.8385,-3.8399,-3.841,0,0,0,0,0,0,-3.8178,-3.8174,-3.8157,-3.8212,-3.8221,-3.8218,-3.8249,-3.8227,-3.8243,-3.8237,-3.8212,-3.8213,-3.8261,-3.8261,-3.8228,-3.8315,-3.8273,-3.828,-3.8313,-3.8325,-3.8335,-3.8333,-3.8177,0,0,0,0,0,-3.8197,-3.8224,-3.8219,-3.8269,-3.8274,-3.8261,-3.8274,-3.8259,-3.8266,-3.8269,-3.8267,-3.8275,-3.8296,-3.8311,-3.8331,-3.8391,-3.8389,-3.8419,-3.8429,-3.8438,-3.8443,-3.8473,-3.8486,-3.8352,-3.8352,-3.8352,0,0,-3.8237,-3.8238,-3.8256,-3.828,-3.8285,-3.8312,-3.8264,-3.8296,-3.8315,-3.8274,-3.8315,-3.8314,-3.8321,-3.8373,-3.8395,-3.8374,-3.8481,-3.8445,-3.8452,-3.8453,-3.848,-3.8493,-3.8504,-3.8356,-3.8355,-3.8355,0,0,-3.8322,-3.8327,-3.8368,-3.8374,-3.8382,-3.8373,-3.8383,-3.8384,-3.8382,-3.8423,-3.8392,-3.8416,-3.8455,-3.846,-3.8468,-3.8557,-3.8531,-3.8565,-3.8616,-3.8646,-3.8656,-3.8665,-3.8695,-3.8706,-3.8571,-3.8571,-3.8572,0,-3.837,-3.8411,-3.8392,-3.8425,-3.8436,-3.8401,-3.8441,-3.8448,-3.8462,-3.847,-3.8447,-3.8494,-3.8497,-3.8548,-3.857,-3.8579,-3.8588,-3.8563,-3.8657,-3.8665,-3.8674,-3.8701,-3.8713,-3.8575,-3.8575,-3.8574,-3.8574,0,-3.8468,-3.8497,-3.8529,-3.8543,-3.8558,-3.8595,-3.8581,-3.8598,-3.8583,-3.8576,-3.8618,-3.862,-3.8639,-3.8651,-3.8636,-3.8701,-3.8687,-3.8661,-3.8617,-3.8691,-3.8716,-3.8727,-3.8581,-3.8579,-3.8578,-3.8577,0,0,-3.8587,-3.8592,-3.8603,-3.8609,-3.8616,-3.8638,-3.8673,-3.8692,-3.8707,-3.8718,-3.8746,-3.878,-3.8756,-3.8765,-3.8751,-3.8777,-3.8845,-3.8747,-3.8747,-3.8763,-3.8914,-3.8931,-3.8944,-3.8829,-3.8831,-3.8833,-3.8912,0,-3.8669,-3.8729,-3.8714,-3.8773,-3.8799,-3.8767,-3.8798,-3.8805,-3.88,-3.8821,-3.8816,-3.8839,-3.8807,-3.8812,-3.8837,-3.8831,-3.8874,-3.8826,-3.8852,-3.8854,-3.8849,-3.8958,-3.8977,-3.9052,-3.8922,-3.8924,-3.8925,0,-3.8772,-3.8787,-3.885,-3.8852,-3.8862,-3.889,-3.8906,-3.8927,-3.8934,-3.8929,-3.894,-3.892,-3.8954,-3.8914,-3.8959,-3.8926,-3.8937,-3.8936,-3.8939,-3.8938,-3.8892,-3.8957,-3.9075,-3.9085,-3.8941,-3.894,-3.8939,0,-3.8849,-3.8886,-3.8928,-3.8934,-3.8939,-3.8959,-3.8961,-3.8967,-3.8979,-3.8994,-3.9001,-3.902,-3.9029,-3.9043,-3.9028,-3.9,-3.9076,-3.9034,-3.907,-3.9071,-3.9085,-3.9083,-3.9203,-3.9097,-3.9097,-3.9097,-3.9096,0,-3.894,-3.8979,-3.8963,-3.8988,-3.903,-3.9012,-3.9055,-3.9054,-3.9059,-3.9083,-3.9058,-3.908,-3.9061,-3.9082,-3.9071,-3.9109,-3.9115,-3.911,-3.9106,-3.9111,-3.9111,-3.9115,-3.9108,-3.91,-3.9099,-3.9098,-3.9098,0,-3.9032,-3.9023,-3.9066,-3.9067,-3.9069,-3.91,-3.91,-3.9123,-3.9118,-3.9148,-3.9154,-3.9145,-3.9169,-3.9157,-3.9181,-3.9174,-3.9222,-3.9213,-3.9219,-3.9216,-3.9252,-3.9248,-3.9376,-3.9391,-3.9278,-3.9279,-3.928,0,-3.9089,-3.9118,-3.9123,-3.9138,-3.9142,-3.9166,-3.9179,-3.9163,-3.9177,-3.9188,-3.921,-3.9232,-3.9247,-3.9287,-3.9281,-3.93,-3.9289,-3.9333,-3.9291,-3.9294,-3.9286,-3.9283,-3.9285,-3.934,-3.9341,-3.9342,-3.9343,0,-3.9191,-3.9185,-3.9205,-3.9223,-3.9239,-3.9253,-3.9264,-3.9278,-3.9262,-3.9279,-3.9303,-3.9316,-3.9341,-3.9362,-3.9378,-3.938,-3.9358,-3.9357,-3.9365,-3.9369,-3.937,-3.9367,-3.9239,-3.9353,-3.9352,-3.9351,-3.9351,-3.935,-3.9265,-3.9289,-3.9296,-3.9319,-3.9326,-3.9337,-3.9358,-3.9356,-3.9376,-3.9395,-3.9385,-3.9413,-3.942,-3.9439,-3.9444,-3.9465,-3.9447,-3.9461,-3.9463,-3.9466,-3.947,-3.937,-3.9468,-3.9468,-3.9468,-3.9467,-3.9467,0,-3.9363,-3.9366,-3.9388,-3.9404,-3.9422,-3.9402,-3.9414,-3.943,-3.9454,-3.9463,-3.948,-3.9507,-3.9528,-3.9525,-3.9544,-3.9561,-3.9551,-3.9566,-3.9563,-3.9563,-3.9486,-3.9475,-3.9573,-3.9573,-3.9573,-3.9573,-3.9573,-3.9573,-3.9415,-3.9454,-3.945,-3.9492,-3.9494,-3.9522,-3.953,-3.954,-3.9546,-3.9578,-3.9595,-3.9594,-3.9598,-3.9617,-3.9634,-3.9633,-3.964,-3.9658,-3.9652,-3.9579,-3.9569,-3.9559,-3.9548,-3.966,-3.966,-3.9727,-3.9728,-3.9728]},{"header":{"parameterUnit":"m.s-1","parameterCategory":1,"la1":30.2991,"la2":30.254,"lo1":-89.0895,"lo2":-89.0444,"dy":0.0017,"dx":0.0017,"nx":28,"ny":28,"refTime":"2024-12-08T09:00:00:Z","depth":0,"parameterNumber":3,"parameterNumberName":"V-component_of_WINDS"},"data":[0,0,0,0,0,0,0,0,0,0,0,0,0,0,0,0,0,0,0,0,0,0,0,0,0,0,0,0,0,0,0,0,0,0,0,0,0,0,0,0,0,0,0,0,0,0,0,0,0,0,0,0,0,0,0,0,0,0,1.8204,1.8205,0,1.8314,1.8316,1.8317,1.8313,1.8312,1.831,1.8309,1.8425,1.843,1.8434,0,0,0,0,0,0,0,0,0,0,0,0,0,1.7994,1.7998,1.8204,1.8205,1.8206,1.8314,1.8316,1.8317,1.8313,1.8311,1.831,1.8308,1.8424,1.8429,1.8434,0,0,0,0,0,0,0,0,0,0,0,0,0,1.8093,1.7999,1.8203,1.8217,1.822,1.8314,1.8316,1.8318,1.8314,1.8311,1.8309,1.8307,1.8422,1.8429,1.8435,1.8524,0,0,1.8456,1.8459,0,0,0,0,0,0,0,0,1.8088,1.8101,1.8214,1.8217,1.8219,1.8297,1.8285,1.8387,1.8314,1.8278,1.8308,1.8306,1.8385,1.8394,1.842,1.8529,1.8534,1.8457,1.8461,1.8464,1.8466,0,0,0,0,0,0,0,1.8081,1.8096,1.8248,1.8216,1.8219,1.822,1.8231,1.8304,1.8343,1.8281,1.8281,1.8294,1.8386,1.8414,1.8423,1.8536,1.8456,1.8463,1.8467,1.8469,1.8726,1.8729,0,0,0,0,0,0,1.807,1.809,1.8244,1.8251,1.8146,1.8226,1.8238,1.8275,1.8342,1.835,1.8296,1.8293,1.8403,1.8415,1.8427,1.8538,1.8464,1.847,1.8474,1.8724,1.8727,1.873,0,0,0,0,0,0,1.8066,1.8084,1.824,1.8171,1.8191,1.8232,1.8273,1.8278,1.8306,1.8354,1.8361,1.8317,1.8402,1.8418,1.85,1.8542,1.8473,1.8479,1.8721,1.8725,1.8729,1.8759,0,0,0,0,0,0,1.806,1.8082,1.8115,1.8171,1.8194,1.8309,1.8275,1.8282,1.8318,1.8315,1.8375,1.8383,1.8401,1.849,1.8507,1.855,1.8485,1.8717,1.8722,1.8727,1.8755,1.8764,1.8772,0,0,0,0,0,1.8052,1.8119,1.8117,1.8135,1.8236,1.8312,1.8325,1.8344,1.8321,1.8355,1.8386,1.8381,1.8534,1.8499,1.8518,1.8564,1.8715,1.8721,1.8727,1.8751,1.8762,1.8771,0,0,0,0,0,0,1.8068,1.8127,1.8125,1.8211,1.8257,1.8311,1.8355,1.8354,1.8408,1.8404,1.8426,1.8439,1.8523,1.8551,1.851,1.8655,1.8622,1.8632,1.8633,1.8644,1.8653,1.8646,1.849,0,0,0,0,0,1.8081,1.8136,1.8185,1.8257,1.828,1.8314,1.8347,1.8358,1.8406,1.8425,1.8462,1.851,1.8569,1.8608,1.8665,1.8758,1.8773,1.8799,1.8807,1.8814,1.8824,1.8879,1.8892,1.875,1.875,1.875,0,0,1.8109,1.8149,1.8182,1.8262,1.8298,1.8357,1.833,1.8392,1.8437,1.8435,1.8516,1.8545,1.86,1.8689,1.873,1.8715,1.8866,1.8822,1.8827,1.8833,1.8887,1.89,1.8912,1.8754,1.8754,1.8753,0,0,1.8192,1.8226,1.8291,1.8328,1.8383,1.8405,1.8421,1.8476,1.8495,1.8576,1.8577,1.8631,1.8731,1.8772,1.8805,1.8905,1.8904,1.8923,1.8968,1.9022,1.9033,1.9043,1.9082,1.9096,1.8931,1.8932,1.8932,0,1.8221,1.8309,1.8325,1.8389,1.8426,1.8425,1.8493,1.8529,1.86,1.8626,1.8607,1.8736,1.8772,1.8873,1.8897,1.8923,1.8945,1.8917,1.903,1.904,1.905,1.9088,1.9102,1.8934,1.8934,1.8933,1.8933,0,1.8344,1.8405,1.8451,1.852,1.8561,1.8626,1.8655,1.8695,1.8702,1.8726,1.8811,1.8855,1.8923,1.8946,1.8954,1.9049,1.9039,1.9024,1.8993,1.9065,1.9101,1.9116,1.8937,1.8936,1.8935,1.8935,0,0,1.8441,1.8518,1.8535,1.8567,1.8628,1.8677,1.8743,1.8809,1.8844,1.8893,1.8952,1.9038,1.9026,1.9064,1.9076,1.9123,1.9204,1.9104,1.9105,1.9124,1.9316,1.9329,1.9345,1.9202,1.9205,1.9207,1.9313,0,1.8533,1.865,1.8667,1.8772,1.883,1.8831,1.889,1.8935,1.896,1.9015,1.9042,1.9105,1.9082,1.9106,1.9151,1.9184,1.9243,1.9176,1.926,1.9263,1.925,1.9363,1.9376,1.9474,1.9326,1.9329,1.933,0,1.8656,1.8709,1.8819,1.8874,1.89,1.8952,1.9015,1.9065,1.9118,1.9133,1.9176,1.9183,1.9255,1.9218,1.9319,1.9273,1.9308,1.9329,1.9334,1.9345,1.9303,1.9381,1.9505,1.9521,1.9352,1.935,1.9349,0,1.872,1.8818,1.8898,1.8925,1.8991,1.9028,1.9058,1.9107,1.9146,1.9201,1.9227,1.929,1.9325,1.9374,1.9399,1.9369,1.95,1.9464,1.9518,1.9517,1.9548,1.9546,1.9683,1.9564,1.9564,1.9564,1.9563,0,1.8823,1.8892,1.8928,1.8978,1.9055,1.9075,1.9152,1.918,1.9225,1.9282,1.9285,1.9339,1.9366,1.9424,1.9444,1.9527,1.9542,1.9558,1.9564,1.956,1.9559,1.9586,1.9582,1.9568,1.9567,1.9566,1.9565,0,1.891,1.8936,1.9024,1.9079,1.9094,1.915,1.9198,1.9247,1.9272,1.9344,1.9362,1.9401,1.947,1.9499,1.9583,1.9596,1.9693,1.9691,1.9676,1.9678,1.9732,1.9728,1.9894,1.9919,1.978,1.9781,1.9782,0,1.8976,1.9028,1.9089,1.9127,1.9158,1.9218,1.9258,1.928,1.9322,1.9386,1.9429,1.9497,1.9554,1.9665,1.9702,1.9767,1.977,1.9823,1.978,1.9776,1.9775,1.9774,1.9781,1.9832,1.9834,1.9835,1.9836,0,1.9091,1.9102,1.9159,1.9221,1.9269,1.9319,1.9368,1.9399,1.9429,1.9476,1.9546,1.959,1.9677,1.9746,1.9814,1.9846,1.9848,1.9849,1.9865,1.9865,1.9855,1.9865,1.9702,1.9846,1.9845,1.9844,1.9843,1.9843,1.9172,1.9221,1.9272,1.9336,1.9375,1.9421,1.9471,1.9502,1.956,1.9632,1.9641,1.9718,1.9771,1.9862,1.9897,1.9959,1.9946,1.9969,1.9975,1.9982,1.9988,1.9842,1.9971,1.9971,1.997,1.997,1.997,0,1.9292,1.9324,1.9383,1.9452,1.9503,1.9497,1.9551,1.9595,1.9662,1.9711,1.9766,1.9849,1.9917,1.9959,2.0029,2.007,2.0073,2.0088,2.0087,2.0095,1.9993,1.9974,2.0085,2.0085,2.0085,2.0085,2.0085,2.0085,1.936,1.9443,1.946,1.9563,1.9595,1.967,1.9702,1.9746,1.9785,1.9877,1.9933,1.996,2.0007,2.008,2.0143,2.0154,2.0181,2.0198,2.0209,2.0114,2.0102,2.0091,2.0073,2.0203,2.0203,2.0306,2.0307,2.0308]}]]